[TLELIST] Archives

 

[list_settings.list_name] Current TLEs

September 8th 2008 PST

HST 1 20580U 90037B 08251.89294126 .00000308 00000-0 10955-4 0 2168 2 20580 028.4676 143.7865 0003948 182.2873 177.7697 15.00404872807414 ISS (ZARYA) 1 25544U 98067A 08252.17767503 .00009369 00000-0 74647-4 0 2096 2 25544 051.6431 310.6458 0006923 092.5457 317.9541 15.71985856561592 CXO 1 25867U 99040B 08249.50000000 -.00000002 +00000-0 +10000-3 0 02404 2 25867 064.1416 078.2397 6979927 278.0267 351.9680 00.37805344003930 ____________________________________________________________________ These 2-Line ...Continue Reading

[list_settings.list_name] Current TLEs

September 7th 2008 PST

HST 1 20580U 90037B 08249.96392550 +.00000269 +00000-0 +79196-5 0 02285 2 20580 028.4674 156.3668 0003916 162.4070 197.6657 15.00404019807125 ISS (ZARYA) 1 25544U 98067A 08250.53980009 .00011225 00000-0 88594-4 0 2014 2 25544 051.6430 319.0321 0006956 087.8654 047.5253 15.71959427561338 CXO 1 25867U 99040B 08249.50000000 -.00000002 +00000-0 +10000-3 0 02404 2 25867 064.1416 078.2397 6979927 278.0267 351.9680 00.37805344003930 ____________________________________________________________________ These 2-Line ...Continue Reading

[list_settings.list_name] Current TLEs

September 6th 2008 PST

HST 1 20580U 90037B 08250.16347868 .00000283 00000-0 90218-5 0 2151 2 20580 028.4675 155.0644 0003924 163.9800 196.0913 15.00404198807151 ISS (ZARYA) 1 25544U 98067A 08249.53443287 .00008699 00000-0 69814-4 0 1940 2 25544 051.6442 324.1763 0006899 083.4394 118.7256 15.71928331561173 CXO 1 25867U 99040B 08249.50000000 -.00000002 +00000-0 +10000-3 0 02404 2 25867 064.1416 078.2397 6979927 278.0267 351.9680 00.37805344003930 ____________________________________________________________________ These 2-Line ...Continue Reading

[list_settings.list_name] Current TLEs

September 5th 2008 PST

HST 1 20580U 90037B 08248.89964023 .00000244 00000-0 59692-5 0 2143 2 20580 028.4674 163.3076 0003900 151.7280 208.3519 15.00403578806960 ISS (ZARYA) 1 25544U 98067A 08249.19907997 .00008192 00000-0 66037-4 0 1914 2 25544 051.6446 325.8929 0007013 081.9413 021.1949 15.71919274561120 CXO 1 25867U 99040B 08246.87500000 +.00000015 +00000-0 +10000-3 0 02397 2 25867 064.1281 078.2852 6973688 278.0750 354.5698 00.37804774003924 ____________________________________________________________________ These 2-Line ...Continue Reading

[list_settings.list_name] Current TLEs

September 4th 2008 PST

HST 1 20580U 90037B 08246.90410479 +.00000257 +00000-0 +69646-5 0 02272 2 20580 028.4677 176.3286 0003876 131.4998 228.5923 15.00403471806665 ISS (ZARYA) 1 25544U 98067A 08247.79933028 .00008170 00000-0 65942-4 0 1833 2 25544 051.6447 333.0591 0006944 076.6395 020.1703 15.71894413560908 CXO 1 25867U 99040B 08246.87500000 +.00000015 +00000-0 +10000-3 0 02397 2 25867 064.1281 078.2852 6973688 278.0750 354.5698 00.37804774003924 ____________________________________________________________________ These 2-Line ...Continue Reading

[list_settings.list_name] Current TLEs

September 3rd 2008 PST

HST 1 20580U 90037B 08247.17017627 .00000249 00000-0 63711-5 0 2133 2 20580 028.4676 174.5921 0003893 134.3868 225.7041 15.00403453806702 ISS (ZARYA) 1 25544U 98067A 08245.82842788 +.00007657 +00000-0 +62192-4 0 01717 2 25544 051.6448 343.1462 0006945 069.7800 026.6603 15.71857623560590 CXO 1 25867U 99040B 08246.87500000 +.00000015 +00000-0 +10000-3 0 02397 2 25867 064.1281 078.2852 6973688 278.0750 354.5698 00.37804774003924 ____________________________________________________________________ These 2-Line ...Continue Reading

[list_settings.list_name] Current TLEs

September 2nd 2008 PST

HST 1 20580U 90037B 08245.90633620 .00000274 00000-0 82845-5 0 2125 2 20580 028.4677 182.8364 0003850 120.8137 239.2826 15.00403410806511 ISS (ZARYA) 1 25544U 98067A 08245.52570602 .00007583 00000-0 61654-4 0 1694 2 25544 051.6446 344.6957 0006909 069.0362 113.2432 15.71852029560542 CXO 1 25867U 99040B 08244.25000000 +.00000044 +00000-0 +10000-3 0 02383 2 25867 064.1128 078.3494 6969345 278.1170 357.1450 00.37806153003916 ____________________________________________________________________ These 2-Line ...Continue Reading

[list_settings.list_name] Current TLEs

September 1st 2008 PST

HST 1 20580U 90037B 08243.97731577 +.00000284 +00000-0 +90932-5 0 02150 2 20580 028.4679 195.4162 0003808 101.2771 258.8241 15.00403118806220 ISS (ZARYA) 1 25544U 98067A 08243.85740898 +.00007388 +00000-0 +60257-4 0 01583 2 25544 051.6446 353.2357 0006923 062.4355 033.2337 15.71824208560281 CXO 1 25867U 99040B 08244.25000000 +.00000044 +00000-0 +10000-3 0 02383 2 25867 064.1128 078.3494 6969345 278.1170 357.1450 00.37806153003916 ____________________________________________________________________ These 2-Line ...Continue Reading

[list_settings.list_name] Current TLEs

August 31st 2008 PST

HST 1 20580U 90037B 08242.97954633 +.00000291 +00000-0 +96195-5 0 02266 2 20580 028.4680 201.9238 0003767 090.4750 269.6271 15.00402929806074 ISS (ZARYA) 1 25544U 98067A 08243.53835338 .00007468 00000-0 60874-4 0 1564 2 25544 051.6443 354.8695 0006895 061.8030 027.2576 15.71819357560233 CXO 1 25867U 99040B 08244.25000000 +.00000044 +00000-0 +10000-3 0 02383 2 25867 064.1128 078.3494 6969345 278.1170 357.1450 00.37806153003916 ____________________________________________________________________ These 2-Line ...Continue Reading

[list_settings.list_name] Current TLEs

August 30th 2008 PST

HST 1 20580U 90037B 08243.17910035 .00000279 00000-0 87530-5 0 2109 2 20580 028.4679 200.6216 0003778 092.6027 267.4995 15.00402869806103 ISS (ZARYA) 1 25544U 98067A 08242.52327631 .00007860 00000-0 63862-4 0 1492 2 25544 051.6432 000.0656 0006797 058.2075 043.1520 15.71802768560074 CXO 1 25867U 99040B 08241.62500000 +.00000013 +00000-0 +10000-3 0 02371 2 25867 064.1066 078.4493 6963378 278.1441 359.7433 00.37802321003909 ____________________________________________________________________ These 2-Line ...Continue Reading
  • This mailing list is a public mailing list - anyone may join or leave, at any time.
  • This mailing list is announce-only.

International Space Station (ISS) / Hubble Space Telescope (HST) / Chandra X-Ray Observatory Orbital Data via EMAIL

Privacy Policy:

Private list